Theta_e
345 356 357 355 367 358 353 349 348 350 349 348 347 350 353 357 361 364 348 348 349 349 350 351 350 350 351 346 343 347 349 351 349 352 353 351 351 351 351 351 352 350 348 349 350 350 352 351 351
354 357 359 357 370 359 357 349 350 349 348 348 347 349 351 358 354 352 348 346 349 347 347 349 347 346 342 346 341 346 349 352 352 351 353 352 352 352 352 352 351 350 349 350 351 351 351 351 352
354 353 362 358 356 357 354 349 349 347 348 349 350 347 350 356 353 351 348 346 348 347 347 349 346 341 341 342 341 346 347 352 353 353 353 352 352 352 352 352 351 350 351 347 351 352 351 351 344
353 356 357 368 353 351 351 350 349 350 348 348 350 353 354 353 352 351 347 345 348 349 346 342 340 340 340 340 342 346 346 352 350 352 351 353 352 353 352 351 352 352 349 348 353 352 350 350 350
351 353 364 363 353 351 349 349 350 350 349 350 352 353 356 352 352 350 346 346 348 347 344 342 340 338 340 341 345 347 347 353 352 353 351 350 348 353 351 352 353 353 348 352 352 352 350 347 348
357 351 364 366 355 350 349 349 350 351 349 350 351 355 357 352 351 348 345 347 348 346 344 343 342 340 341 344 346 347 347 348 347 351 352 350 349 351 351 353 353 353 353 353 348 345 344 343 343
349 356 362 353 351 351 350 347 351 351 349 352 348 358 356 352 350 348 347 348 345 348 345 347 347 346 342 344 348 347 347 344 347 351 352 353 348 352 351 353 353 352 353 347 345 345 344 343 343
348 352 353 350 351 351 348 347 346 347 351 347 348 357 359 353 349 348 347 347 347 348 341 348 347 349 349 350 353 348 346 344 345 349 352 352 351 347 351 351 353 353 348 343 345 345 345 344 343
346 360 355 350 352 350 348 349 347 347 350 350 350 350 353 351 349 348 347 348 350 350 344 348 348 354 352 351 352 346 346 344 345 346 348 346 350 351 346 353 346 345 342 343 343 342 342 341 344
345 347 346 345 347 349 348 348 349 354 355 353 353 351 353 351 350 348 349 351 351 353 350 349 352 352 354 351 351 352 349 348 349 349 350 353 352 351 352 351 345 339 339 338 337 337 338 343 351
342 344 342 344 346 347 349 349 349 350 356 351 356 354 353 352 350 347 350 351 351 351 352 353 352 352 351 347 349 351 350 350 350 350 348 350 350 348 347 346 342 346 342 350 351 351 351 352 352
340 338 339 340 344 346 348 348 350 349 351 349 350 352 353 352 351 348 350 350 349 350 352 351 352 351 349 346 347 350 351 349 350 350 351 349 348 344 345 343 344 348 348 346 347 351 352 353 353
338 337 336 336 342 345 345 347 348 349 349 350 350 352 351 351 350 349 349 350 349 350 350 349 349 351 350 349 347 349 350 348 349 350 347 345 343 343 344 344 344 345 346 347 350 353 353 353 356
335 335 336 338 342 343 340 343 346 349 348 351 351 352 351 349 349 350 349 349 347 349 350 349 347 351 350 349 350 349 350 349 349 347 347 344 341 343 342 343 345 346 350 350 351 353 353 353 352
335 336 337 339 338 340 336 342 344 346 347 352 353 352 352 350 348 350 349 349 349 349 349 348 348 349 349 351 350 350 349 348 348 346 347 345 345 346 350 345 347 347 349 352 353 352 351 351 351
337 337 340 339 336 336 334 342 344 344 347 351 352 353 353 351 349 348 349 348 348 348 348 347 347 348 349 349 350 349 349 348 348 346 346 346 346 346 346 347 346 350 351 350 350 349 347 347 348
337 338 339 339 337 333 333 335 338 344 347 348 351 353 353 353 350 348 348 348 347 349 348 347 347 347 349 350 350 350 348 349 348 350 347 346 347 347 354 346 348 348 349 349 348 350 349 347 346
339 338 335 336 336 335 333 334 333 336 345 346 349 351 354 354 352 349 348 347 349 349 349 348 349 349 350 349 350 349 348 349 347 351 347 351 347 348 352 348 354 350 348 347 349 347 349 349 348
335 336 336 333 334 333 333 333 333 334 340 345 348 350 353 354 352 351 349 348 350 351 350 351 351 351 351 351 350 349 349 348 349 346 348 351 349 349 352 352 349 350 350 354 351 351 351 347 346
334 333 333 332 333 333 333 333 333 334 335 340 345 348 350 352 353 352 350 348 348 351 351 353 353 353 353 351 350 350 349 348 348 348 348 350 349 351 351 352 349 348 348 352 353 353 350 347 348
331 331 330 331 332 331 333 335 334 335 335 336 340 344 349 350 353 354 352 350 349 349 352 353 354 354 354 352 351 351 349 348 349 349 349 350 350 349 351 353 352 353 349 351 352 353 352 349 345
330 329 327 328 331 333 333 333 334 334 334 335 337 341 346 349 351 354 354 351 350 349 351 352 354 354 354 353 352 351 351 351 350 351 350 349 350 349 350 352 352 353 350 348 351 349 352 348 345
326 326 326 327 330 332 332 333 333 334 334 334 335 338 343 348 349 353 354 352 351 350 351 352 355 355 354 355 353 350 352 351 351 350 350 348 349 350 349 350 353 354 351 347 349 354 351 353 346
326 326 327 328 329 332 332 332 332 335 336 334 334 335 339 345 347 351 352 352 352 351 351 352 355 357 356 356 354 352 352 352 350 352 352 350 350 350 349 349 352 353 352 349 353 352 351 351 354
325 326 328 330 332 333 332 332 332 334 333 333 333 335 337 343 346 350 352 353 352 352 352 352 354 357 357 356 356 355 354 353 352 352 352 351 350 349 349 348 350 352 353 352 349 352 352 355 352
328 327 328 334 334 335 335 335 334 332 332 333 336 336 337 341 345 349 350 352 353 352 353 352 354 358 357 356 356 356 355 354 353 352 352 351 348 347 348 349 348 351 352 351 351 350 350 347 350
328 331 330 329 330 330 332 334 335 334 332 336 338 336 338 340 344 347 349 350 353 353 353 354 354 357 357 357 357 357 356 355 352 352 352 351 349 350 347 348 350 351 351 353 351 348 348 349 352
329 330 330 329 332 335 334 338 337 334 335 335 339 337 339 342 344 345 348 349 352 353 353 354 354 356 357 356 357 357 356 356 354 352 353 348 351 351 350 350 352 351 353 352 351 347 348 348 351
332 330 329 330 332 336 337 337 335 335 334 337 339 341 340 342 344 345 346 348 350 352 353 354 354 356 357 355 355 356 356 355 356 353 354 352 350 351 352 352 353 351 350 352 352 352 350 352 353
334 334 334 333 336 337 338 337 335 334 333 335 338 340 342 344 344 344 345 346 349 352 353 354 355 355 357 357 357 356 356 356 355 354 353 351 350 349 351 352 353 352 353 352 352 353 349 351 353
Wind_Speed
5 6 9 7 6 4 9 6 7 11 11 9 9 9 11 11 8 2 22 21 24 24 22 19 19 17 14 13 12 11 11 12 10 9 9 10 9 8 7 6 6 5 5 6 6 6 6 5 6
9 5 8 5 3 2 3 8 12 13 9 4 6 3 10 10 11 15 18 25 24 24 22 20 20 18 16 12 12 9 9 8 9 8 9 9 8 7 6 5 4 3 3 5 7 7 6 6 8
5 6 8 4 3 6 5 9 10 9 4 6 4 7 6 10 4 14 21 28 25 23 22 19 20 18 15 13 11 8 7 7 8 8 8 7 7 6 5 3 2 3 4 6 7 7 6 5 6
6 7 5 7 7 8 10 8 8 5 6 4 11 10 9 5 9 9 25 27 25 23 20 20 19 17 14 12 9 8 6 6 7 7 7 7 7 6 5 4 4 5 6 6 7 7 6 4 2
10 5 6 7 8 5 6 7 4 2 6 4 17 7 10 5 7 20 27 26 25 20 20 21 17 17 12 11 10 8 6 6 6 6 6 5 6 6 7 5 6 8 7 7 6 5 5 3 2
5 3 7 7 7 3 3 8 4 1 4 6 5 11 9 9 16 24 26 24 22 23 20 16 16 13 12 10 9 8 7 6 5 6 6 7 6 6 7 8 8 8 8 6 4 4 4 2 1
7 4 10 1 5 6 2 1 4 9 6 3 2 6 11 14 20 24 23 22 21 23 21 16 13 13 11 9 8 8 8 7 6 7 6 7 7 7 7 8 9 8 6 5 4 2 1 1 2
5 4 5 2 2 7 8 3 4 5 8 4 4 7 13 18 22 23 22 22 20 22 21 14 13 12 9 9 8 7 8 7 7 7 7 8 7 8 8 9 8 6 4 4 2 1 2 3 4
5 3 1 5 8 5 6 4 3 2 6 2 7 10 19 23 24 23 23 19 18 19 18 12 13 10 12 10 8 7 8 8 8 6 8 8 11 8 8 9 7 5 4 4 3 2 2 1 3
8 6 8 4 4 5 4 6 5 8 19 7 12 8 20 23 23 24 23 19 16 17 17 14 13 11 11 11 8 9 8 9 10 10 9 8 4 11 13 7 6 7 5 4 1 2 5 6 10
2 6 5 4 10 6 4 5 6 7 1 3 14 13 17 21 21 21 26 24 25 20 19 13 16 13 12 10 11 9 10 12 12 9 10 8 8 7 7 5 6 6 5 9 6 8 9 9 1
3 3 5 5 4 4 4 7 8 5 8 7 11 14 16 16 15 16 25 23 25 22 19 16 18 15 14 12 9 12 10 13 15 13 10 7 8 8 7 7 7 4 6 2 5 4 6 2 2
3 6 6 6 10 1 6 7 4 6 1 5 11 14 15 14 15 24 23 20 20 21 20 21 20 16 13 10 9 11 9 10 13 15 11 9 9 8 7 6 6 7 4 4 3 6 2 4 5
7 8 9 4 5 3 8 7 3 3 7 8 11 13 13 12 13 23 24 24 25 23 25 22 19 16 14 12 8 7 9 7 9 10 11 10 9 8 8 7 8 8 7 2 2 3 3 6 7
10 12 8 1 4 4 13 12 5 7 7 10 12 12 11 11 14 27 26 25 24 22 20 21 18 19 16 14 12 11 10 11 11 9 9 10 8 8 5 8 6 7 3 3 6 6 9 3 1
14 13 12 8 4 3 11 1 8 6 7 12 13 13 12 13 14 16 28 26 26 26 25 20 20 20 18 16 13 13 9 8 10 10 10 11 10 9 8 7 10 6 6 5 4 3 7 6 2
13 12 3 3 3 7 7 11 5 7 10 12 12 15 13 13 15 17 21 27 26 20 23 22 20 21 22 17 15 13 12 11 11 9 11 13 11 9 10 10 7 3 4 2 5 6 3 11 10
12 3 4 9 1 7 12 11 10 9 10 10 13 14 15 16 16 20 22 23 26 24 22 23 22 20 20 19 16 15 13 14 13 14 14 13 12 10 9 9 4 6 6 5 3 5 7 7 7
8 11 13 11 5 8 12 14 13 9 14 12 12 15 17 16 17 22 21 24 28 26 26 24 22 21 20 18 19 15 16 16 13 13 11 12 13 12 10 10 9 8 7 3 3 7 8 11 6
12 13 13 12 3 11 15 16 17 16 13 15 15 14 16 18 20 21 22 24 26 32 29 26 24 22 22 21 21 20 17 15 17 16 14 13 15 12 12 12 6 10 6 7 3 5 10 7 2
14 14 13 13 12 16 21 16 13 11 11 12 14 15 17 18 20 20 23 25 25 26 28 28 26 25 24 21 19 15 16 17 13 16 16 16 16 16 14 11 12 2 9 7 6 5 6 12 5
17 11 7 10 12 12 16 13 15 2 5 11 13 15 17 19 19 20 23 25 26 27 27 27 28 26 25 24 21 21 19 17 17 16 21 16 18 17 16 14 10 8 10 8 4 7 5 3 7
12 10 8 11 13 15 17 10 8 6 8 10 11 14 17 19 20 22 22 27 26 26 27 28 28 28 26 26 23 24 23 20 17 19 16 20 19 17 18 15 14 12 11 11 10 1 3 5 7
13 10 13 17 13 13 17 7 9 10 5 5 4 9 14 18 20 20 27 27 26 25 26 27 28 28 28 26 27 24 22 20 17 16 15 16 19 18 19 19 16 14 12 14 9 7 7 8 6
12 13 11 11 10 11 10 5 8 3 6 6 5 8 12 17 18 20 21 23 26 27 27 27 28 28 29 27 26 25 23 23 17 18 17 19 20 22 22 22 19 17 16 14 11 11 10 7 8
14 15 12 8 9 6 8 4 1 1 1 8 5 7 13 17 18 20 21 23 26 28 27 27 29 28 29 28 27 26 25 22 21 19 18 19 17 17 13 25 22 19 17 16 13 13 13 14 11
15 10 14 18 16 13 11 4 10 8 9 5 1 5 13 15 18 19 20 24 27 28 30 30 28 29 29 29 27 26 25 24 21 19 20 13 17 19 19 20 22 20 17 16 14 16 15 12 9
14 14 8 10 11 11 11 4 6 6 6 6 2 9 12 16 17 18 18 25 27 28 29 29 29 29 28 28 27 26 25 24 22 19 18 21 19 17 15 19 19 21 19 17 15 16 17 14 13
8 11 12 15 11 11 8 7 8 4 2 5 6 4 13 16 17 17 18 25 26 27 28 29 29 29 28 28 27 25 25 24 23 22 20 21 20 15 13 18 17 19 18 19 17 17 17 14 14
12 15 13 11 15 13 10 13 8 5 3 1 1 4 4 15 16 16 17 23 25 26 27 29 29 30 29 28 26 27 24 23 24 24 21 22 24 21 19 17 19 18 19 19 18 17 18 17 16
Wind_Direction
252 261 272 265 253 206 75 69 60 53 57 36 54 5 113 99 57 104 131 133 143 139 142 142 142 139 132 131 125 121 122 131 133 136 143 152 154 151 142 129 122 104 71 57 63 84 92 87 92
271 295 247 269 14 92 338 57 59 54 56 79 109 145 78 79 63 121 132 147 145 143 143 144 143 140 134 128 116 117 122 131 138 143 143 143 150 150 142 128 117 97 75 82 87 97 100 85 88
277 273 279 270 136 108 109 84 82 81 60 16 54 24 12 73 113 136 134 149 149 145 144 150 147 143 138 131 120 117 124 139 138 140 148 147 155 155 158 148 138 118 113 97 101 100 94 90 111
261 195 238 354 64 36 68 89 88 127 124 33 45 95 104 37 139 128 148 156 144 145 144 152 150 147 142 135 129 125 135 143 138 139 136 139 148 160 155 153 145 125 107 103 102 101 89 83 84
234 246 281 173 85 79 61 63 115 353 86 67 98 64 78 89 135 136 152 158 138 146 148 147 154 153 147 142 134 131 136 144 149 134 133 127 137 138 141 142 136 119 119 111 106 87 74 65 63
275 255 13 329 118 73 67 53 178 282 91 109 323 113 88 118 140 145 158 150 145 151 139 154 156 158 148 141 138 134 144 155 144 136 140 141 132 128 127 131 127 123 117 117 108 87 74 41 332
285 322 196 15 86 107 85 102 170 182 128 214 14 148 118 138 143 150 158 145 153 138 143 146 150 153 159 150 139 142 154 156 156 154 147 135 137 131 127 129 127 130 133 134 117 96 32 280 292
283 226 166 22 94 82 75 11 358 323 81 75 324 180 147 140 154 156 157 151 154 136 155 151 149 152 148 156 151 159 160 159 160 153 159 151 147 145 145 136 144 149 154 166 172 218 272 289 283
251 103 35 59 63 46 124 293 112 300 150 131 70 35 139 148 158 160 150 149 130 146 154 161 164 150 154 160 159 154 159 157 161 167 171 168 162 160 152 157 168 187 190 207 230 250 260 248 257
315 46 30 360 38 19 73 320 277 117 283 70 128 100 126 157 165 170 146 158 150 163 171 175 154 164 170 173 151 165 165 162 170 177 171 195 242 146 153 173 205 203 208 224 238 281 259 243 238
77 32 3 342 9 28 355 242 256 303 95 130 137 135 151 167 174 179 154 174 177 188 169 175 170 171 175 163 173 162 173 178 170 166 174 175 177 185 200 183 181 208 215 244 231 249 264 254 311
279 5 353 338 305 297 317 12 300 338 24 23 90 138 160 175 176 175 166 184 182 175 167 181 180 169 190 175 192 164 180 182 173 172 188 167 211 171 195 190 186 232 200 251 228 290 318 309 290
235 349 314 325 276 333 302 255 286 284 239 109 113 146 164 183 175 167 173 181 169 166 184 188 179 172 201 173 194 151 189 192 171 163 186 177 202 184 187 191 201 223 203 229 243 249 250 265 223
8 304 284 317 343 282 328 301 214 85 114 137 152 160 171 185 181 151 171 184 183 179 182 189 176 179 192 190 180 192 193 206 192 182 178 194 205 184 188 193 204 210 247 221 264 337 298 238 189
284 274 257 122 351 345 315 241 186 79 149 160 175 179 166 169 179 164 175 187 182 187 182 186 180 180 193 195 188 202 194 187 182 199 164 191 218 183 263 207 223 218 202 277 229 256 251 244 103
250 261 250 120 318 66 300 339 98 160 182 168 187 179 174 168 177 181 170 184 192 183 188 188 191 186 191 192 191 202 212 206 192 190 187 192 206 184 212 190 208 168 229 225 246 286 310 323 140
218 272 323 139 150 308 303 305 178 180 190 198 183 176 183 173 174 184 186 183 187 182 183 189 192 194 184 194 195 212 208 211 201 184 204 182 196 197 229 223 185 158 219 280 318 302 324 321 322
345 306 309 294 16 295 301 297 304 182 212 230 177 185 186 180 179 181 191 191 173 182 193 191 192 196 183 194 203 212 212 210 204 189 200 173 196 204 229 224 81 208 221 231 1 339 1 289 339
341 294 281 278 296 301 292 291 289 266 183 216 211 189 182 195 176 178 191 190 175 177 185 189 196 194 195 186 209 206 221 215 206 209 199 181 203 204 221 255 185 244 295 8 358 283 240 319 331
262 275 270 267 301 280 294 290 283 261 235 205 203 203 193 190 172 179 187 191 195 182 193 191 195 197 198 199 204 196 212 220 214 208 202 204 202 209 210 248 234 212 261 175 244 301 305 258 51
254 264 284 299 314 281 262 273 294 203 203 221 210 203 189 190 182 176 186 195 194 192 193 192 196 197 198 210 204 206 206 226 217 201 202 207 207 207 217 211 247 292 253 225 195 235 290 316 299
260 262 294 289 268 285 321 296 270 205 213 198 223 200 197 193 192 173 186 194 194 192 197 195 195 199 200 207 204 203 203 207 212 215 211 205 207 209 211 217 221 234 239 262 208 235 263 255 303
268 308 267 267 271 277 270 256 260 159 166 170 198 212 197 191 188 177 187 190 193 189 192 197 195 199 201 200 209 198 217 211 206 221 212 202 198 209 213 214 214 219 232 245 253 236 256 273 274
254 266 251 251 252 263 253 253 261 149 120 181 169 179 201 192 189 186 181 185 191 188 190 193 193 197 199 200 206 206 210 229 219 208 205 202 215 207 212 213 216 222 228 247 209 242 242 262 305
227 235 254 225 221 243 88 275 264 123 179 243 263 209 192 183 185 182 181 179 188 187 191 190 193 197 198 201 204 208 212 219 213 207 216 216 218 225 203 204 211 211 222 240 227 224 257 232 263
206 250 268 298 275 7 120 256 235 213 214 266 266 221 176 181 181 182 184 184 188 189 192 194 192 198 199 202 204 206 210 217 220 215 211 218 234 227 231 190 208 213 213 218 232 232 238 240 239
247 240 261 282 286 269 260 178 259 210 222 31 56 173 171 179 175 181 180 186 187 192 193 197 194 199 201 203 203 205 208 214 217 211 218 225 218 227 216 201 205 211 218 224 220 233 248 249 252
253 267 267 223 262 273 274 184 220 136 17 344 264 179 176 178 177 177 181 187 189 197 196 198 199 200 201 204 204 206 208 211 216 212 205 215 218 208 206 196 204 212 210 216 219 237 230 235 244
184 235 243 278 300 310 296 61 28 124 159 324 122 259 170 181 178 180 185 188 193 199 198 200 200 199 202 202 202 206 207 208 210 213 212 213 216 213 211 202 206 210 211 213 216 238 258 223 231
289 295 255 229 233 239 268 294 209 151 157 260 107 151 279 180 187 189 191 190 193 196 201 198 203 203 203 201 199 201 204 206 206 211 208 212 211 208 209 211 211 217 215 221 223 229 239 237 242